Location: Curupao
(10.4996°N, 66.6442°W)
Time: 00:20:06
(UTC+00:00)

Okean O Rocket - Pass Details

Date: 23 May 2024
Orbit: 617 x 640 km, 98.1° (Epoch: 15 June)

Event Time Altitude Azimuth Distance (km) Brightness Sun altitude
Exits shadow 00:24:30 23° 36° (NE) 1,366 3.2 -23.6°
Drops below altitude 10° 00:26:36 10° 15° (NNE) 2,024 4.3 -24.0°
Sets 00:29:00 0° 5° (N) 2,933 5.3 -24.5°
